DW2959 Murcia ES current weather conditions

sailwx.info

Wind from 101 at 5 knots

Air temperature 32.2° C
Dewpoint 19.5° C

Last reported at 2014-Jul-24 13:41 UTC.
Time now 2014-Jul-24 14:39 UTC

Location: N 38°00' W 001°02'.
View on Google Maps.

See reports from other nearby stations

  
Tides and Currents Weather Stations Pressure Air Temp Water Temp Dewpoint Dewpoint Depression Visibility Wind Speed Wind Dir Waves Ship Positions
date/time (UTC)wind fromknots sea level pressurealtimeterstation pressurevisibilityair tempwater tempwave heightnotes
2014-Jul-24 13:41 101 5 32.2
2014-Jul-24 13:26 092 5 32.2
2014-Jul-24 13:11 096 6 31.7
2014-Jul-24 12:56 067 6 31.7
2014-Jul-24 12:41 074 4 31.7
2014-Jul-24 12:26 071 4 31.1
2014-Jul-24 12:11 055 5 31.1
2014-Jul-24 11:56 058 4 31.1
2014-Jul-24 11:41 126 4 31.1
2014-Jul-24 11:26 128 4 31.1
2014-Jul-24 11:11 079 2 31.1
2014-Jul-24 10:56 053 3 31.1
2014-Jul-24 10:41 094 2 30.6
2014-Jul-24 10:26 105 2 30.6
2014-Jul-24 10:11 109 1 30.0
2014-Jul-24 09:56 098 2 29.4
2014-Jul-24 09:41 076 1 28.9
2014-Jul-24 09:26 046 1 28.3
2014-Jul-24 09:11 096 3 27.2
2014-Jul-24 08:56 035 2 26.7
2014-Jul-24 08:41 085 0 26.7
2014-Jul-24 08:26 068 1 26.1
2014-Jul-24 08:11 075 0 26.1
2014-Jul-24 07:56 090 0 25.0
2014-Jul-24 07:41 103 24.4
2014-Jul-24 07:26 103 23.9
2014-Jul-24 07:11 102 23.9
2014-Jul-24 06:56 102 0 22.8
2014-Jul-24 06:41 078 0 22.8
2014-Jul-24 06:26 078 22.2
2014-Jul-24 06:11 078 21.1
2014-Jul-24 05:56 078 20.6
2014-Jul-24 04:25
2014-Jul-24 04:11
2014-Jul-24 03:55
2014-Jul-24 03:40
2014-Jul-24 03:26 079 20.0
2014-Jul-24 03:09 079 20.6
2014-Jul-24 02:55 079 20.6
2014-Jul-24 02:40 079 21.1
2014-Jul-24 02:25 079 21.7
2014-Jul-24 02:09 079 21.7
2014-Jul-24 01:55 079 21.7
2014-Jul-24 01:40 079 22.8
2014-Jul-24 01:24 079 22.8
2014-Jul-24 01:10 079 22.2
2014-Jul-24 00:53 079 22.2
2014-Jul-24 00:39 079 22.2
2014-Jul-24 00:24 079 22.2
2014-Jul-24 00:09 079 22.8
2014-Jul-23 23:54 079 0 23.3
2014-Jul-23 23:39 078 0 23.3
2014-Jul-23 23:24 059 0 23.3
2014-Jul-23 23:09 059 23.9
2014-Jul-23 22:53 059 23.9
2014-Jul-23 22:38 059 0 24.4
2014-Jul-23 22:23 069 1 24.4
2014-Jul-23 22:09 064 1 24.4
2014-Jul-23 21:53 072 2 25.0
2014-Jul-23 21:38 046 1 25.0
2014-Jul-23 21:23 065 1 25.6
2014-Jul-23 21:07 046 2 26.1
2014-Jul-23 20:52 033 4 26.7
2014-Jul-23 20:38 022 3 27.2
2014-Jul-23 20:22 048 1 28.9
2014-Jul-23 20:07 078 0 29.4
2014-Jul-23 19:53 096 1 30.0
2014-Jul-23 19:38 084 0 30.6
2014-Jul-23 19:22 098 0 30.6
2014-Jul-23 19:07 139 3 31.1
2014-Jul-23 18:52 214 0 32.2
2014-Jul-23 18:36 081 2 32.2
2014-Jul-23 18:21 109 3 32.8
2014-Jul-23 18:07 155 4 32.8
2014-Jul-23 17:52 149 4 32.8
2014-Jul-23 17:36 133 6 32.8
2014-Jul-23 17:21 119 6 32.8
2014-Jul-23 17:06 159 6 33.3
2014-Jul-23 16:52 182 6 33.3
2014-Jul-23 16:36 155 6 33.9
2014-Jul-23 16:21 145 6 33.9
2014-Jul-23 16:07 165 6 33.9
2014-Jul-23 15:51 117 6 33.9
2014-Jul-23 15:36 116 6 34.4
2014-Jul-23 15:21 168 6 34.4
2014-Jul-23 15:06 161 6 34.4
2014-Jul-23 14:51 146 6 35.0
2014-Jul-23 14:35 156 6 35.0
2014-Jul-23 14:20 217 5 35.6
2014-Jul-23 14:05 166 5 35.6
2014-Jul-23 13:50 184 1 35.6
2014-Jul-23 13:35 306 1 35.6
2014-Jul-23 13:20 215 1 35.6
2014-Jul-23 13:06 167 3 35.0
2014-Jul-23 12:51 096 1 35.0
2014-Jul-23 12:34 130 2 34.4
2014-Jul-23 12:20 133 2 33.9
2014-Jul-23 12:05 162 3 33.9
2014-Jul-23 11:50 157 4 33.3
2014-Jul-23 11:35 076 2 33.3
2014-Jul-23 11:20 146 5 32.8
2014-Jul-23 11:04 220 1 32.8
2014-Jul-23 10:49 092 3 31.7
2014-Jul-23 10:34 072 2 31.1
2014-Jul-23 10:19 027 2 30.6
2014-Jul-23 10:04 341 2 29.4
2014-Jul-23 09:49 032 2 28.9
2014-Jul-23 09:34 015 1 28.3
2014-Jul-23 09:19 017 2 27.8
2014-Jul-23 09:04 055 0 27.2
2014-Jul-23 08:49 060 26.7
2014-Jul-23 08:34 060 26.1
2014-Jul-23 08:19 061 25.6
2014-Jul-23 08:04 062 25.0
2014-Jul-23 07:49 061 24.4
2014-Jul-23 07:34 061 23.9
2014-Jul-23 07:19 061 23.3
2014-Jul-23 07:04 061 23.3
2014-Jul-23 06:49 061 22.8
2014-Jul-23 06:34 061 21.7
2014-Jul-23 06:19 061 21.1
2014-Jul-23 06:04 061 20.0
2014-Jul-23 05:49 061 19.4
2014-Jul-23 05:33
2014-Jul-23 05:18
2014-Jul-23 05:03
2014-Jul-23 04:48
2014-Jul-23 04:33
2014-Jul-23 04:18
2014-Jul-23 04:03
2014-Jul-23 03:48
2014-Jul-23 03:33 060 19.4
2014-Jul-23 03:18 060 20.0
2014-Jul-23 03:03 060 20.0
2014-Jul-23 02:48 060 20.0
2014-Jul-23 02:33 060 20.0
2014-Jul-23 02:18 060 20.6
2014-Jul-23 02:03 060 20.6
2014-Jul-23 01:48 060 20.6
2014-Jul-23 01:33 060 21.1
2014-Jul-23 01:18 060 21.7
2014-Jul-23 01:03 060 21.7
2014-Jul-23 00:48 060 1 22.2
2014-Jul-23 00:33 042 21.7
2014-Jul-23 00:18 042 21.7
2014-Jul-23 00:03 042 21.7
2014-Jul-22 23:48 042 22.2
2014-Jul-22 23:33 042 22.2
2014-Jul-22 23:17 042 22.8
2014-Jul-22 23:02 042 23.3
2014-Jul-22 22:47 042 23.3
2014-Jul-22 22:32 042 1 23.3
2014-Jul-22 22:17 048 2 23.9
2014-Jul-22 22:02 051 2 24.4
2014-Jul-22 21:47 051 1 24.4
2014-Jul-22 21:32 051 1 25.0
2014-Jul-22 21:17 076 1 25.6
2014-Jul-22 21:02 121 1 26.7
2014-Jul-22 20:47 120 1 26.7
2014-Jul-22 20:32 121 0 26.7
2014-Jul-22 20:17 097 1 27.2
2014-Jul-22 20:02 144 2 27.2
2014-Jul-22 19:47 114 3 27.8
2014-Jul-22 19:32 104 3 28.3
2014-Jul-22 19:17 155 4 28.9
2014-Jul-22 19:02 090 4 29.4
2014-Jul-22 18:47 150 3 30.6
2014-Jul-22 18:32 155 4 30.6
2014-Jul-22 18:17 360 7 30.6
2014-Jul-22 18:02 166 6 31.1
2014-Jul-22 17:47 166 6 31.1
2014-Jul-22 17:32 165 7 31.7
2014-Jul-22 17:17 167 9 31.7
2014-Jul-22 17:02 157 8 32.2
2014-Jul-22 16:47 155 6 32.2
2014-Jul-22 16:32 166 7 32.8
2014-Jul-22 16:17 182 8 32.8
2014-Jul-22 16:02 180 6 32.8
2014-Jul-22 15:47 175 6 33.3
2014-Jul-22 15:32 171 7 33.3
2014-Jul-22 15:17 126 7 33.3
2014-Jul-22 15:01 164 7 33.3
2014-Jul-22 14:46 145 6 33.3
2014-Jul-22 14:31 098 6 32.8
2014-Jul-22 14:16 151 6 32.8
2014-Jul-22 14:01 169 8 32.8